CAPE
5 4 4 5 4 3 2 1 1 2 2 3 4 2 0 0 0 0 0 0 0 0 0 0 0 0 0 0 0 0 0 0 0 0 0 0 3 0 0 0 0 65 0 366 1539
4 4 2 2 3 2 3 3 3 3 3 3 4 3 1 0 0 0 0 0 0 0 0 0 0 0 0 0 0 0 0 0 0 0 0 0 0 2 0 0 0 43 0 1165 2036
3 3 2 3 3 2 2 2 2 4 7 7 2 4 0 0 0 0 0 0 0 0 0 0 0 0 0 0 0 0 0 0 0 0 0 0 0 0 0 19 3 49 0 438 1347
3 5 6 4 4 4 4 3 4 4 5 5 4 3 1 0 0 0 0 0 0 0 0 0 0 0 0 0 0 0 0 0 0 0 0 0 0 0 0 17 64 32 0 0 208
0 0 2 4 5 4 3 3 3 3 4 5 5 2 0 0 0 0 0 0 0 0 0 0 0 0 0 0 0 0 0 0 0 0 0 0 0 0 0 0 44 19 0 0 0
0 0 0 0 2 3 4 2 2 2 2 4 5 7 3 0 0 0 0 0 0 0 0 0 0 0 0 0 0 0 0 0 0 0 0 0 0 0 0 0 50 22 3 0 0
0 0 0 2 3 4 3 2 4 2 3 7 8 18 3 0 0 0 0 0 0 0 0 0 0 0 0 0 0 0 0 0 0 0 0 0 0 0 0 0 0 40 36 0 0
0 0 2 5 5 5 4 3 2 4 5 7 17 14 1 0 0 0 0 0 0 0 0 0 0 0 0 0 0 0 0 0 0 0 0 0 0 0 0 0 0 10 37 31 4
0 0 2 3 5 7 6 3 1 1 4 1 10 9 0 0 0 0 0 0 0 0 0 0 0 0 0 0 0 0 0 0 0 0 0 0 0 0 0 0 0 8 23 22 40
3 2 6 5 6 3 2 1 0 0 1 6 3 2 0 0 0 0 0 0 0 0 0 0 0 0 0 0 0 0 0 0 0 0 0 0 0 0 0 0 1 8 4 38 94
3 5 4 5 4 6 2 0 0 1 7 0 0 0 0 0 0 0 0 0 0 0 0 0 0 0 0 0 0 0 0 0 0 0 0 0 0 0 0 0 0 1 18 22 55
1 1 2 2 1 0 5 0 0 0 0 0 0 0 0 0 0 0 0 0 0 0 0 0 0 0 0 0 0 0 0 0 0 0 0 0 0 0 0 0 0 1 11 5 36
0 0 0 1 0 0 0 0 0 0 5 0 0 0 0 0 0 0 0 0 0 0 0 0 0 0 0 0 0 0 0 0 0 0 0 2 0 2 0 0 0 0 0 0 0
0 1 0 0 0 0 0 0 0 10 3 0 0 0 0 0 0 0 0 0 0 0 0 0 0 0 0 0 0 0 0 0 0 0 2 0 1 0 0 0 0 0 3 13 19
2 3 3 9 0 0 0 0 0 48 0 0 0 0 0 0 0 0 0 0 0 0 0 0 0 0 0 0 0 0 0 0 0 0 3 15 0 0 1 0 12 31 72 91 0
0 0 0 0 0 0 0 0 0 20 0 0 44 10 14 7 6 23 0 0 0 0 0 0 0 0 0 0 0 0 2 18 14 8 6 3 0 0 1 4 36 83 79 20 0
0 0 0 0 0 0 0 0 0 3 0 0 2 93 39 116 28 56 3 0 0 0 0 0 0 0 0 0 0 2 12 18 15 20 7 19 14 112 0 3 15 142 207 119 21
0 0 0 0 0 0 3 1 1 0 0 0 0 29 3 40 89 46 45 7 0 0 0 1 0 3 0 0 2 9 12 15 26 6 14 7 7 138 7 0 232 301 253 175 117
0 0 0 0 2 10 25 14 0 1 3 0 7 12 28 146 24 0 0 25 0 0 0 9 13 0 0 0 2 24 9 2 1 0 34 40 136 90 62 171 229 338 300 245 178
0 0 0 0 29 20 18 0 0 8 23 2 0 63 41 43 0 0 8 0 0 0 0 8 3 0 0 1 0 0 25 46 45 22 14 41 10 115 124 115 200 271 253 206 87
0 0 71 126 48 36 6 2 12 11 11 17 4 6 2 30 39 4 0 1 36 6 0 1 3 3 0 0 0 0 5 19 79 69 25 9 10 70 81 114 231 270 188 102 3
8 1 197 69 8 40 8 17 34 78 75 82 40 40 91 15 0 0 5 10 1 8 1 6 41 10 5 0 0 12 47 8 96 44 7 114 212 1 0 121 158 148 77 1 0
19 0 13 32 29 29 16 4 8 22 32 1 29 125 7 8 2 0 0 0 0 27 2 23 23 59 7 0 17 19 45 51 104 129 6 2 83 16 82 138 87 5 0 0 0
17 5 50 79 143 61 14 1 14 18 15 10 4 77 73 21 0 15 1 0 0 21 23 7 35 42 46 28 70 6 52 57 50 0 14 9 0 3 23 24 32 9 0 0 0
13 46 74 60 8 8 9 23 20 44 26 0 13 80 23 11 6 3 0 0 2 20 3 22 94 149 15 28 35 54 39 61 20 6 14 26 24 33 1 1 15 23 22 9 2
54 39 4 16 10 23 40 56 30 1 20 4 7 4 9 0 17 0 1 2 41 21 12 29 56 84 25 1 0 5 26 124 101 44 38 7 64 84 0 18 59 22 12 6 0
29 36 18 4 16 5 6 13 0 25 7 3 7 11 3 1 1 3 0 0 0 58 124 74 86 30 23 33 8 1 71 65 54 24 31 20 46 35 14 17 22 21 11 5 0
CIN
-1 0 -1 -2 -1 -1 -1 0 -1 -1 0 -1 0 0 0 0 0 0 0 0 0 0 0 0 0 0 0 0 0 0 0 0 0 0 0 0 -5 0 0 0 -1 -11 0 -37 -64
-1 -1 -2 -1 -2 -2 -2 -1 -1 -1 -1 -1 -2 0 0 0 0 0 0 0 0 0 0 0 0 0 0 0 0 0 0 0 0 0 0 0 0 -5 -2 0 0 -34 0 -35 -7
0 0 -2 0 0 0 -1 0 -1 -1 0 0 -2 -1 0 0 0 0 0 0 0 0 0 0 0 0 0 0 0 0 0 0 0 0 0 0 0 0 0 -6 -2 -5 0 -65 -45
-2 -1 -1 -1 -1 0 0 0 0 0 0 -1 -2 -3 -1 0 0 0 0 0 0 0 0 0 0 0 0 0 0 0 0 0 0 0 0 0 0 0 0 -4 -11 -10 0 0 -100
0 0 -3 -3 -1 0 0 -1 0 -1 -1 -1 -2 -4 0 0 0 0 0 0 0 0 0 0 0 0 0 0 0 0 0 0 0 0 0 0 0 0 0 0 -5 -9 0 0 0
0 0 0 0 -2 -2 -3 -3 -2 -2 -2 -1 -1 -1 -1 0 0 0 0 0 0 0 0 0 0 0 0 0 0 0 0 0 0 0 0 0 0 0 0 0 -6 -10 -10 0 0
0 0 0 0 -1 -3 -2 -2 -3 -3 -1 -1 0 0 0 0 0 0 0 0 0 0 0 0 0 0 0 0 0 0 0 0 0 0 0 0 0 0 0 0 0 -9 -6 0 0
0 0 -1 -1 0 -2 -3 -4 -4 -2 -1 0 0 -1 0 0 0 0 0 0 0 0 0 0 0 0 0 0 0 0 0 0 0 0 0 0 0 0 0 0 0 -4 -20 -10 -3
0 0 -1 0 0 -1 -3 -3 -1 -1 -1 -4 0 0 0 0 0 0 0 0 0 0 0 0 0 0 0 0 0 0 0 0 0 0 0 0 0 0 0 0 0 -3 -6 -10 -7
0 -1 -1 0 -1 -1 -3 -6 0 0 -3 -1 -2 -1 0 0 0 0 0 0 0 0 0 0 0 0 0 0 0 0 0 0 0 0 0 0 0 0 0 0 -4 -3 -4 -5 -5
0 0 0 -1 -1 -1 -2 0 0 0 0 0 0 0 0 0 0 0 0 0 0 0 0 0 0 0 0 0 0 0 0 0 0 0 0 0 0 0 0 0 0 -10 -4 -7 -6
-1 -1 -1 -2 -1 0 -1 0 0 0 0 0 0 0 0 0 0 0 0 0 0 0 0 0 0 0 0 0 0 0 0 0 0 0 0 0 0 0 0 0 0 -4 -7 -6 -6
-1 -2 -1 -2 0 0 0 0 0 0 -1 0 0 0 0 0 0 0 0 0 0 0 0 0 0 0 0 0 0 0 0 0 0 0 0 -4 0 -8 0 0 0 -1 -2 0 0
0 -2 -4 -2 0 0 0 0 0 -2 0 0 0 0 0 0 0 -1 0 0 0 0 0 0 0 0 0 0 0 0 0 0 0 0 -7 -2 -8 0 0 0 0 -1 -12 -9 -3
-2 -2 -2 -2 0 0 0 0 0 -2 0 0 -1 0 0 0 -2 0 0 0 0 0 0 0 0 0 0 0 0 0 0 -1 -1 0 -3 -13 0 0 -7 -1 -13 -6 -6 -7 -4
0 0 -1 0 0 0 0 0 0 -2 -2 0 -7 -11 -33 -97 -90 -13 0 0 0 0 0 0 0 0 0 0 0 0 -5 -5 -7 -10 -6 -15 0 -14 -16 -23 -20 -8 -12 -19 0
0 0 0 0 0 0 0 0 0 -3 0 0 -8 -6 -12 -4 -54 -10 -8 0 0 0 -4 0 0 0 0 0 0 -2 -6 -8 -8 -6 -8 -10 -15 -31 0 -47 -35 -8 -59 -90 -119
0 0 0 0 0 0 -32 -4 -2 0 0 0 0 -16 -6 -15 -5 -7 -14 -19 0 0 0 -9 -3 -9 0 0 -5 -6 -8 -12 -9 -14 -8 -17 -17 -11 -83 0 -4 -42 -77 -104 -110
0 0 0 0 -2 -2 -13 -4 -1 -3 -5 0 -14 -8 -9 -21 -63 0 0 -15 -1 0 0 -14 -13 -2 0 0 -6 -11 -11 -9 -20 0 -18 -28 -8 -46 -10 -5 -49 -67 -97 -114 -160
0 0 0 0 -11 -15 -4 0 0 -9 -10 -20 0 -18 -14 -27 0 0 0 -10 0 -2 0 -9 -25 -5 -1 -5 0 0 -18 -6 -8 -19 -16 -24 -61 -5 -47 -12 -46 -81 -120 -143 -174
0 0 -5 -5 -22 -2 0 -4 -7 -8 -9 -9 -7 -34 -16 -2 0 0 0 -2 -9 -11 0 -4 -9 -18 0 0 0 0 -10 -24 -19 -7 -14 -23 -101 -34 -79 -35 -30 -75 -112 -141 -191
0 -3 -7 -14 0 -1 -2 -3 -29 -4 -3 -2 -4 -4 -2 -1 0 0 0 0 -2 -11 -8 -5 -8 -23 -6 0 0 -16 -5 -47 -8 -45 -12 -8 -5 -5 -2 -8 -6 -43 -81 -51 0
0 0 -8 -2 0 -4 -2 -2 -17 -5 -6 -22 -11 -5 -13 0 -3 0 0 0 0 -41 -7 -8 -12 -4 -7 0 -10 -17 -24 -14 -11 -16 -1 -13 -18 -56 -12 -3 -4 -30 0 0 0
0 -3 -7 -15 -2 0 0 -2 -9 -3 -6 -2 -32 -11 -5 -6 0 0 0 0 0 -31 -4 -5 -5 -13 -7 -9 -7 -9 -4 -6 -29 0 -16 -10 -7 -6 -5 -8 -6 -2 -2 -1 0
-1 -2 -1 -1 -2 -4 -5 -5 -4 -1 -5 0 -1 -1 -1 0 0 0 0 0 -16 -12 -2 -6 -4 -4 -47 -5 -29 -10 -5 -3 -7 -3 -6 -5 -4 -21 -67 -16 -13 -5 -23 -10 -3
0 0 -2 -1 -2 -3 -2 -4 -2 -1 -1 0 0 0 0 0 0 0 0 0 -2 -8 -20 -7 -5 -6 -4 -1 0 -58 -6 -3 -5 -9 -6 -5 -3 -22 -2 -12 -3 -3 -5 -5 -1
-2 -1 0 0 -1 -1 0 -7 -5 -1 -1 0 0 -1 -2 0 -1 -1 -3 0 0 -8 -1 -149 -5 -3 -1 -3 -7 -6 -14 -2 -4 -3 -3 -4 -4 -5 -12 -3 -3 -2 -2 -2 0
Wind_Speed
29 21 27 28 19 15 15 14 15 17 16 15 18 25 27 30 33 27 20 11 16 19 21 24 22 22 25 29 30 28 42 50 47 41 42 38 27 27 28 33 24 20 24 27 20
32 29 28 29 26 27 24 21 19 16 17 18 17 24 29 29 30 17 12 11 11 17 19 23 21 20 24 26 28 32 40 46 39 42 41 42 37 29 29 27 25 21 21 23 14
31 30 29 30 30 27 26 23 22 21 20 19 21 24 27 29 13 13 22 5 7 9 15 22 26 20 27 26 28 30 48 39 40 42 37 42 38 28 37 32 30 27 19 20 19
32 32 31 31 32 31 32 29 26 22 19 18 21 21 24 11 14 15 12 4 2 6 10 20 24 24 27 30 27 36 38 40 44 39 39 40 37 40 37 36 28 19 20 18 16
33 34 34 34 34 33 33 32 28 25 21 18 18 18 17 9 10 9 8 4 2 2 7 13 19 23 28 27 28 33 38 37 37 41 40 35 40 39 39 38 21 21 22 20 16
31 32 32 33 34 34 32 31 31 26 22 19 19 18 14 14 7 3 5 3 3 4 8 12 21 23 29 32 30 30 32 34 36 35 40 41 39 39 43 41 25 25 26 23 27
32 32 32 34 36 35 33 32 32 31 27 22 19 15 14 13 13 7 4 5 7 6 10 18 25 27 24 28 32 32 36 29 32 34 35 37 48 51 39 40 39 29 29 29 26
34 35 34 35 35 35 35 34 33 31 28 22 15 11 19 12 7 7 3 3 4 7 15 21 20 24 21 21 24 29 33 38 31 29 33 35 56 44 42 41 43 40 34 37 28
36 36 34 36 35 35 35 36 35 30 25 19 13 12 23 14 9 11 10 6 7 9 14 20 17 20 19 24 29 29 33 33 34 29 28 32 51 46 42 41 43 44 38 41 34
40 39 36 37 35 35 38 38 31 24 18 14 21 16 19 15 8 8 9 10 8 9 11 11 13 17 21 22 29 29 28 30 35 24 29 40 45 43 46 45 47 45 46 40 41
41 39 38 38 37 36 39 32 24 23 18 19 16 16 22 13 9 8 8 8 7 8 10 11 15 18 17 19 24 30 25 27 24 25 27 35 41 43 44 44 50 46 44 42 43
39 37 38 39 39 38 31 24 25 29 37 18 20 20 21 20 13 9 9 10 12 13 12 10 18 17 19 17 21 23 27 25 23 21 23 25 36 40 42 46 49 45 44 46 44
36 36 37 37 39 31 22 24 26 31 32 31 21 21 20 19 18 13 15 14 14 17 16 15 17 20 19 19 18 18 23 21 24 21 22 23 39 36 37 42 46 44 44 51 45
38 37 38 41 29 27 29 25 21 20 34 35 18 18 20 17 24 17 18 16 18 21 18 19 21 14 19 18 17 21 14 21 21 24 23 15 35 21 19 32 34 39 40 40 39
39 38 36 30 28 24 22 22 23 15 34 24 5 14 9 19 15 23 18 19 22 21 21 21 20 17 18 17 19 23 16 9 14 19 16 12 21 33 21 11 15 21 27 29 29
40 38 33 29 19 18 17 19 17 22 30 18 13 13 11 14 21 13 19 21 22 23 21 26 20 26 21 22 22 17 22 20 14 10 9 14 12 32 27 32 12 10 11 18 22
41 36 31 23 21 19 12 12 22 24 19 19 15 12 8 7 14 20 23 22 24 24 25 19 25 18 18 15 17 19 18 16 11 9 8 26 7 19 15 25 37 6 8 13 13
43 40 26 18 12 15 13 14 27 20 18 20 29 28 21 17 8 23 25 23 26 22 24 21 25 19 15 17 17 19 16 11 9 3 6 19 16 10 10 11 3 5 6 8 8
44 32 27 19 12 9 12 22 22 19 19 27 37 37 43 22 22 24 41 24 26 32 26 28 25 15 17 25 34 21 15 34 36 31 20 29 2 11 6 2 6 4 4 6 6
38 34 25 13 9 9 15 22 21 28 28 35 36 37 34 33 31 34 31 37 47 32 45 29 31 17 15 14 31 33 30 32 38 9 8 5 27 5 7 5 2 1 3 6 5
34 33 20 15 11 12 17 17 13 24 20 42 42 36 35 29 27 30 34 39 45 26 18 35 28 18 13 17 15 18 17 31 36 32 33 13 32 28 17 7 3 1 3 5 6
32 32 15 11 17 13 13 13 32 33 32 27 30 39 38 25 28 34 32 33 34 19 23 18 27 18 18 9 26 38 30 20 29 29 32 33 20 10 29 6 5 1 1 3 5
33 31 17 5 16 14 29 33 29 28 27 29 33 35 22 19 30 33 35 39 37 33 27 20 21 13 23 27 18 36 26 25 20 24 18 33 18 15 9 7 6 3 3 4 6
27 28 24 10 24 30 30 30 27 25 28 30 32 32 27 27 28 26 30 27 33 39 19 17 26 27 17 20 7 14 29 27 20 22 28 24 22 20 16 9 5 4 5 6 9
21 19 27 27 30 31 29 29 28 24 24 23 29 28 28 29 30 28 29 32 35 20 14 14 21 20 19 16 12 23 8 21 35 35 31 24 21 24 13 17 14 7 10 12 14
19 22 29 30 28 29 26 25 23 24 25 25 21 21 23 22 23 24 28 31 27 15 15 16 27 25 18 15 10 22 8 4 11 15 20 14 13 9 14 9 11 13 14 16 17
25 29 26 25 23 22 22 23 25 22 19 21 23 20 18 18 18 20 20 26 24 14 14 34 10 8 15 18 19 20 12 8 11 17 15 14 14 4 6 15 14 16 17 19 19
Wind_Direction
355 12 356 350 12 16 15 11 9 4 3 1 353 337 329 318 306 308 303 292 308 286 287 279 274 266 262 260 256 256 255 252 254 257 258 258 263 274 263 260 272 272 274 273 286
345 355 354 347 353 350 353 356 357 359 357 353 353 341 328 325 313 251 269 297 292 291 276 272 270 263 258 260 254 251 254 254 261 261 261 258 263 268 259 256 263 266 285 275 282
348 352 350 345 343 349 349 351 349 348 347 347 344 339 333 327 320 249 316 243 286 280 275 272 268 266 260 260 255 254 254 262 261 263 264 261 261 267 256 254 257 261 276 273 279
346 345 345 341 337 339 336 339 343 344 345 345 341 341 336 351 344 353 359 36 344 286 276 272 265 261 262 259 261 258 262 262 262 265 263 264 266 258 258 259 263 258 265 273 270
347 344 339 336 333 334 332 333 338 340 341 342 342 341 343 322 258 326 0 356 1 276 268 270 266 262 260 265 264 264 265 266 267 262 263 267 259 259 261 259 265 253 261 258 263
350 347 344 338 333 331 333 335 333 335 336 335 334 334 330 301 321 237 302 271 259 245 267 265 272 270 267 264 267 268 272 269 269 266 260 262 260 260 258 256 256 252 260 258 253
349 346 343 336 331 329 331 331 329 327 328 326 323 319 307 277 330 320 284 232 205 233 268 274 269 271 268 269 268 270 268 274 271 269 266 263 259 255 261 257 257 260 258 256 258
346 343 340 337 333 329 328 328 327 326 325 324 319 315 309 322 245 242 282 234 243 270 274 281 271 274 269 279 279 271 269 268 272 271 268 267 258 259 258 256 255 258 258 259 253
342 340 340 337 335 331 329 325 324 325 327 333 332 312 314 326 254 222 208 237 275 278 281 277 267 269 267 267 268 270 268 269 274 274 269 264 264 263 261 254 256 254 260 257 256
337 337 338 335 336 333 327 324 324 326 329 331 322 316 305 305 298 240 215 211 261 266 276 261 262 259 259 257 262 270 269 275 273 279 274 268 268 266 260 258 256 253 256 260 255
337 338 337 335 333 332 329 332 330 326 314 307 307 305 315 309 321 268 207 198 217 234 236 229 242 242 248 252 266 275 277 281 290 286 282 278 270 269 261 259 254 255 252 254 255
339 339 336 333 330 329 327 327 324 323 312 284 277 270 281 302 289 260 201 237 242 231 223 247 221 251 260 257 264 272 278 285 294 297 291 288 281 271 265 256 253 252 255 255 255
339 337 335 333 330 331 331 323 323 321 311 303 274 255 260 250 266 239 207 222 241 240 219 238 266 254 256 258 258 264 272 285 290 303 305 300 287 274 267 261 254 251 254 255 255
337 336 334 332 333 338 327 335 337 332 314 309 286 287 244 250 243 246 209 223 257 249 243 249 258 249 246 249 254 261 271 284 293 297 302 319 291 284 271 265 255 254 252 254 257
336 335 334 336 328 329 333 339 338 341 315 333 3 341 301 220 286 229 210 221 249 254 247 245 250 248 246 246 255 264 274 269 291 293 306 320 306 241 285 220 231 254 256 254 264
336 333 333 331 321 314 319 330 333 317 304 323 323 311 286 242 243 233 214 223 248 254 253 254 255 254 259 252 257 260 270 284 288 282 255 212 310 265 261 249 206 197 246 274 277
336 333 326 318 323 342 325 322 312 302 324 312 303 287 283 248 222 244 194 203 216 237 244 245 250 254 248 248 244 255 261 272 275 224 246 212 200 288 302 266 224 171 275 276 286
337 332 327 317 301 309 322 304 295 309 273 289 303 285 288 273 226 196 189 195 200 233 248 237 240 239 239 233 243 248 248 242 203 250 207 185 195 286 279 215 269 288 288 283 285
338 340 334 327 321 312 295 289 287 288 293 296 287 279 251 286 262 261 237 195 192 188 240 245 250 220 240 245 236 252 229 200 234 270 290 235 200 285 294 11 54 296 316 289 288
341 336 329 346 345 313 292 283 287 294 291 274 277 261 254 253 253 248 252 245 215 186 223 246 248 246 199 240 246 246 249 254 241 288 261 258 242 283 171 225 267 358 295 278 294
343 340 351 357 357 315 291 291 285 291 293 261 250 245 252 259 260 246 241 234 205 187 214 234 246 241 239 223 217 238 258 251 244 254 248 288 247 268 253 158 152 195 276 281 292
343 335 358 2 330 322 304 306 293 286 275 284 263 249 255 262 260 250 245 237 241 191 182 216 246 239 244 240 188 244 254 254 253 259 256 257 274 300 260 139 99 90 312 322 322
339 330 335 297 322 320 289 277 285 275 276 267 253 248 268 263 253 251 246 237 235 231 175 187 247 237 248 249 258 232 251 258 269 269 275 245 280 280 290 24 52 32 348 311 318
349 346 351 349 269 270 281 280 281 288 274 261 244 254 259 251 251 255 244 244 228 227 191 215 242 236 241 261 213 235 241 247 265 257 260 267 268 275 291 313 324 342 334 322 312
3 4 331 313 279 285 282 271 280 286 275 281 244 247 246 248 243 251 242 234 223 232 194 185 239 240 246 260 265 227 198 257 235 247 261 281 272 265 276 278 288 313 311 309 303
6 3 305 277 281 290 283 276 279 283 273 264 271 252 245 253 254 245 230 223 215 211 197 224 237 241 256 260 273 251 244 141 273 273 265 281 296 301 277 272 296 304 308 306 301
355 298 279 274 272 271 260 281 280 292 280 271 271 267 265 265 254 248 243 232 225 211 209 206 221 233 254 251 253 265 273 281 294 280 287 294 307 9 304 293 303 303 306 304 308